Location: Alsip
(41.6689°N, 87.7387°W)
Time: 15:16:03
(UTC+00:00)

Meteor 1-14 Rocket - Pass Details

Date: 14 July 2020
Orbit: 835 x 918 km, 81.3° (Epoch: 13 August)

Event Time Altitude Azimuth Distance (km) Brightness Sun altitude
Exits shadow 07:12:46 62° 185° (S) 948 4.1 -24.3°
Maximum altitude 07:13:47 88° 101° (E) 853 4.1 -24.3°
Drops below altitude 10° 07:19:28 10° 10° (N) 2,501 7.7 -23.9°
Sets 07:21:55 0° 11° (N) 3,454 8.7 -23.7°
